Location: Newark
(34.6283°N, 36.0776°E)
Time: 13:22:52
(UTC+00:00)

Tiros 1 despin weight - Pass Details

Date: 26 September 2019
Orbit: 593 x 643 km, 48.2° (Epoch: 20 October)

Event Time Altitude Azimuth Distance (km) Brightness Sun altitude
Rises 14:04:45 0° 305° (NW) 2,850 ? 16.1°
Reaches altitude 10° 14:07:05 10° 302° (WNW) 1,938 ? 15.6°
Maximum altitude 14:11:29 67° 221° (SW) 645 ? 14.7°
Drops below altitude 10° 14:15:50 10° 138° (SE) 1,914 ? 13.8°
Sets 14:18:06 0° 136° (SE) 2,811 ? 13.4°
